Location: Grand Fond
(18.0610°N, 63.0433°W)
Time: 10:10:49
(UTC+00:00)

Daily predictions for brighter satellites

Satellite Brightness Start Highest point End
(mag) Time Altitude Azimuth Time Altitude Azimuth Time Altitude Azimuth
CZ-4C R/B 4.0 22:11:17 10° N 22:17:40 26° ENE 22:24:20 10° ESE
Cosmos 1825 Rocket 3.6 22:14:44 10° S 22:19:04 61° E 22:23:21 10° NNE
Cosmos 2360 Rocket 3.9 22:14:41 10° NW 22:19:52 39° WSW 22:25:02 10° S
Cosmos 44 3.4 22:21:31 10° SSW 22:26:23 78° WNW 22:31:00 10° NNE
Cosmos 2219 Rocket 2.2 22:21:59 10° N 22:27:34 60° ENE 22:33:06 10° SSE
Nadezhda 3 Rocket 4.0 22:23:14 10° N 22:29:34 83° E 22:35:55 10° S
COSMOS 2428 2.7 22:25:10 10° N 22:30:50 63° ENE 22:36:28 10° SSE
Haruka 4.0 22:31:31 10° WNW 22:34:17 22° NNW 22:37:29 10° NE
Centaur AC-64 4.5 22:29:53 10° WNW 22:34:38 87° NNE 23:09:02 10° ESE
Centaur AC-64 4.5 22:29:52 10° WNW 22:34:38 87° NNE 23:09:02 10° ESE
Cosmos 2341 Rocket 4.3 22:28:27 10° S 22:34:49 76° W 22:41:12 10° N
NOSS 0 Rocket 4.5 22:29:38 10° N 22:35:11 34° ENE 22:40:42 10° SE
SL-8 Rocket 4.0 22:30:04 10° S 22:36:21 75° E 22:42:38 10° N
Cosmos 1048 Rocket 3.9 22:32:14 10° N 22:37:20 81° ENE 22:42:27 10° SSE
CZ-2D R/B 4.4 22:35:16 10° SE 22:38:15 22° ENE 22:41:13 10° NNE
OAO 2 Rocket 4.3 22:34:55 10° SSW 22:39:15 31° SE 22:42:57 13° E
Atlas Centaur 2 2.6 22:36:57 10° W 22:41:28 46° NNW 22:46:33 13° NE
Palapa 6 Rocket 4.4 22:34:10 10° WNW 22:41:33 75° NNE 22:49:16 12° E
GPS 2-18 Rocket1 3.1 22:39:54 10° WNW 22:43:36 64° N 22:46:29 16° E
H-2A R/B 2.1 22:42:07 10° NW 22:44:33 38° NNE 22:51:09 11° E
CSL-04 Debris 4.4 22:42:44 10° SSE 22:47:50 45° ENE 22:52:55 10° N
FUSE 4.2 22:47:13 10° W 22:52:32 62° NNW 22:56:19 19° ENE
YAOGAN 1 2.5 22:50:32 10° SSE 22:54:47 60° ENE 22:59:01 10° N
Cosmos 1328 3.8 22:52:48 10° S 22:56:48 85° W 23:00:48 10° N
Ariane Rocket 4.1 22:53:32 10° ESE 22:57:09 20° ENE 23:00:47 10° NNE
Meteor 2-10 Rocket 3.9 22:56:53 10° NNE 23:01:40 38° E 23:06:19 10° SSE
FALCON 9 R/B 4.0 22:37:30 10° WSW 23:06:00 75° NW 23:11:22 21° NE
ADEOS Rocket 3.4 22:59:05 10° NNE 23:06:07 82° ESE 23:13:44 10° S
SL-08 R/B 4.4 23:00:08 10° S 23:06:15 69° E 23:12:30 10° N
Meteor 1-11 4.1 23:01:54 10° S 23:07:33 72° E 23:13:08 10° NNE
Cosmos 2218 Rocket 4.4 23:01:32 10° SSW 23:07:43 68° W 23:14:01 10° N
Cosmos 494 Rocket 3.9 23:07:31 10° NNW 23:12:38 84° WSW 23:17:45 10° S
Cosmos 1455 2.1 23:10:49 10° N 23:14:31 59° E 23:18:13 10° SSE
CSL-04 Rocket 3.6 23:10:33 10° SSE 23:15:57 89° WSW 23:21:27 10° NNW
Cosmos 1939 Rocket 2.7 23:13:32 10° SSE 23:17:23 90° W 23:21:16 10° N
Cosmos-2242 3.0 23:13:15 10° N 23:17:32 84° W 23:21:47 10° S
Cosmos 2237 Rocket 2.1 23:12:57 10° N 23:18:28 58° ENE 23:23:58 10° SSE
OAO 3 Rocket 3.1 23:13:58 10° SW 23:18:34 67° SE 23:20:01 42° E
Cosmos 2333 Rocket 3.9 23:14:19 10° NW 23:19:26 35° WSW 23:24:30 10° SSW
Cosmos 1461 4.5 23:20:09 10° NW 23:24:23 40° WSW 23:28:42 10° S
NOSS 3-2 (A) 3.9 23:24:39 10° S 23:29:07 32° ESE 23:29:07 32° ESE
Cosmos 1339 Rocket 4.4 23:23:39 10° N 23:29:46 87° W 23:35:57 10° S
Cosmos 1241 Rocket 4.3 23:23:53 10° NNW 23:30:05 67° ENE 23:36:20 10° SSE
ASTRO E2 2.5 23:29:42 10° WNW 23:33:40 88° SSW 23:33:42 87° SSE
SWIFT 2.5 23:39:43 10° W 23:43:29 66° WNW 23:43:29 66° WNW
CZ-4 R/B 4.4 23:42:43 10° SW 23:45:14 16° W 23:47:47 10° WNW
USA 234 4.2 23:42:09 10° SSE 23:48:22 47° SW 23:54:35 10° NW
Cosmos 1934 Rocket 4.5 23:46:58 10° SSE 23:51:11 40° SE 23:51:11 40° SE
